Date String (YYYY-MM-DD hh:mm:ss) UTC,Instrument flags,absolute air pressure of the measurement (hPa),sample flow rate (lpm),inlet stack bypass flow (lpm),air temperature of the measurement (°C),ambient temperature measured by the external sensor (°C),aerosol sample conditioner tube jacket temperature (°C),OPC LED temperature (°C),internal box temperature (°C),relative humidity of the measurement (%),span deviation,mass concentration of particles derived from Lorenz-Mie calculation of OPC scattering (μg/m³),mass concentration of particles derived from Lorenz-Mie calculation of OPC scattering (μg/m³),mass concentration of particles derived from Lorenz-Mie calculation of OPC scattering (μg/m³)
DateTimeUTC,F1_M11,P_M11,Q1_M11,Q2_M11,T1_M11,T2_M11,T3_M11,T4_M11,T5_M11,U1_M11,ZSPAN_M11,X2_M11,X0_M11,X1_M11
2024-02-26 09:00:00,SystemResetWarning,0821.6,4.99,000.00,020.4,019.7,000.0,028.6,022.1,11.7,0000.0,0001.61,0007.06,0000.98
2024-02-26 09:01:00,SystemResetWarning,0821.9,5.00,000.00,020.4,019.7,000.0,028.6,022.1,11.8,0000.0,0001.64,0007.65,0000.96
2024-02-26 09:02:00,SystemResetWarning,0821.9,5.00,000.00,020.4,019.7,000.0,028.6,022.1,11.7,0000.0,0001.70,0008.01,0000.96
2024-02-26 09:03:00,SystemResetWarning,0821.8,5.01,000.00,020.4,019.7,000.0,028.6,022.1,11.8,0000.0,0001.74,0007.98,0000.95
2024-02-26 09:04:00,SystemResetWarning,0821.9,5.01,000.00,020.4,019.7,000.0,028.6,022.1,11.7,0000.0,0001.73,0007.50,0000.94
2024-02-26 09:05:00,SystemResetWarning,0822.1,5.00,000.00,020.4,019.7,000.0,028.6,022.1,11.7,0000.0,0001.67,0006.87,0000.92
2024-02-26 09:06:00,SystemResetWarning,0822.0,5.00,000.00,020.4,019.7,000.0,028.6,022.1,11.8,0000.0,0001.63,0007.01,0000.92
2024-02-26 09:07:00,SystemResetWarning,0821.9,5.00,000.00,020.4,019.7,000.0,028.6,022.1,11.8,0000.0,0001.62,0007.03,0000.90
2024-02-26 09:08:00,SystemResetWarning,0822.0,4.99,000.00,020.4,019.7,000.0,028.6,022.1,11.8,0000.0,0001.59,0006.81,0000.89
2024-02-26 09:09:00,SystemResetWarning,0822.0,4.99,000.00,020.4,019.7,000.0,028.6,022.1,11.8,0000.0,0001.59,0006.57,0000.90
2024-02-26 09:10:00,SystemResetWarning,0822.1,5.00,000.00,020.5,019.7,000.0,028.6,022.1,11.8,0000.0,0001.57,0005.85,0000.90
2024-02-26 09:11:00,SystemResetWarning,0822.0,5.01,000.00,020.5,019.7,000.0,028.6,022.1,11.8,0000.0,0001.52,0005.23,0000.89
2024-02-26 09:12:00,SystemResetWarning,0822.0,5.00,000.00,020.5,019.7,000.0,028.6,022.1,11.8,0000.0,0001.49,0004.35,0000.90
2024-02-26 09:13:00,SystemResetWarning,0821.9,5.01,000.00,020.5,019.7,000.0,028.6,022.1,11.8,0000.0,0001.46,0003.54,0000.90
2024-02-26 09:14:00,SystemResetWarning,0821.9,4.99,000.00,020.5,019.7,000.0,028.6,022.1,11.9,0000.0,0001.40,0003.23,0000.90
2024-02-26 09:15:00,SystemResetWarning,0822.0,4.99,000.00,020.5,019.7,000.0,028.6,022.0,11.8,0000.0,0001.40,0003.26,0000.90
2024-02-26 09:16:00,SystemResetWarning,0821.7,5.00,000.00,020.4,019.7,000.0,028.6,022.0,11.8,0000.0,0001.39,0003.30,0000.89
2024-02-26 09:17:00,SystemResetWarning,0821.4,5.00,000.00,020.5,019.7,000.0,028.6,022.1,11.9,0000.0,0001.38,0002.98,0000.88
2024-02-26 09:18:00,SystemResetWarning,0821.9,5.00,000.00,020.4,019.7,000.0,028.6,022.1,11.9,0000.0,0001.39,0002.46,0000.90
2024-02-26 09:19:00,SystemResetWarning,0822.0,5.00,000.00,020.4,019.7,000.0,028.6,022.1,12.0,0000.0,0001.41,0002.51,0000.91
2024-02-26 09:20:00,SystemResetWarning,0821.4,5.01,000.00,020.4,019.7,000.0,028.6,022.1,12.0,0000.0,0001.40,0002.55,0000.90
2024-02-26 09:21:00,SystemResetWarning,0821.5,5.01,000.00,020.4,019.7,000.0,028.6,022.1,12.0,0000.0,0001.39,0002.66,0000.90
2024-02-26 09:22:00,SystemResetWarning,0821.5,5.00,000.00,020.4,019.7,000.0,028.6,022.1,12.0,0000.0,0001.40,0002.78,0000.89
2024-02-26 09:23:00,SystemResetWarning,0821.9,4.99,000.00,020.4,019.7,000.0,028.6,022.1,12.0,0000.0,0001.41,0002.81,0000.89
2024-02-26 09:24:00,SystemResetWarning,0821.8,5.01,000.00,020.4,019.7,000.0,028.6,022.1,12.0,0000.0,0001.43,0002.90,0000.89
2024-02-26 09:25:00,SystemResetWarning,0821.9,5.00,000.00,020.4,019.7,000.0,028.6,022.1,12.0,0000.0,0001.43,0002.90,0000.90
2024-02-26 09:26:00,SystemResetWarning,0821.9,5.01,000.00,020.4,019.7,000.0,028.6,022.1,12.0,0000.0,0001.41,0002.82,0000.92
2024-02-26 09:27:00,SystemResetWarning,0822.0,5.00,000.00,020.4,019.7,000.0,028.6,022.1,12.0,0000.0,0001.43,0003.38,0000.93
2024-02-26 09:28:00,SystemResetWarning,0821.9,5.00,000.00,020.4,019.7,000.0,028.6,022.0,12.1,0000.0,0001.48,0004.16,0000.94
2024-02-26 09:29:00,SystemResetWarning,0821.6,5.00,000.00,020.4,019.7,000.0,028.6,022.0,12.0,0000.0,0001.47,0004.35,0000.93
2024-02-26 09:30:00,SystemResetWarning,0821.4,5.00,000.00,020.4,019.7,000.0,028.6,022.0,12.1,0000.0,0001.45,0004.32,0000.92
2024-02-26 09:31:00,SystemResetWarning,0821.4,5.01,000.00,020.4,019.7,000.0,028.6,022.0,12.1,0000.0,0001.48,0004.37,0000.92
2024-02-26 09:32:00,SystemResetWarning,0821.3,4.99,000.00,020.4,019.7,000.0,028.6,022.1,12.1,0000.0,0001.50,0004.35,0000.91
2024-02-26 09:33:00,SystemResetWarning,0821.3,5.00,000.00,020.4,019.7,000.0,028.6,022.1,12.1,0000.0,0001.50,0004.30,0000.91
2024-02-26 09:34:00,SystemResetWarning,0821.4,5.00,000.00,020.4,019.7,000.0,028.7,022.1,12.1,0000.0,0001.51,0004.50,0000.91
2024-02-26 09:35:00,SystemResetWarning,0821.5,4.99,000.00,020.4,019.7,000.0,028.6,022.0,12.1,0000.0,0001.50,0004.58,0000.91
2024-02-26 09:36:00,SystemResetWarning,0821.9,5.01,000.00,020.4,019.7,000.0,028.6,022.0,12.2,0000.0,0001.47,0004.69,0000.90
2024-02-26 09:37:00,SystemResetWarning,0821.4,5.02,000.00,020.4,019.7,000.0,028.6,022.0,12.2,0000.0,0001.48,0004.69,0000.89
2024-02-26 09:38:00,SystemResetWarning,0821.3,5.00,000.00,020.4,019.7,000.0,028.6,022.0,12.2,0000.0,0001.46,0004.11,0000.89
2024-02-26 09:39:00,SystemResetWarning,0821.3,4.99,000.00,020.4,019.7,000.0,028.6,022.0,12.2,0000.0,0001.40,0003.28,0000.89
2024-02-26 09:40:00,SystemResetWarning,0821.3,4.99,000.00,020.4,019.7,000.0,028.6,022.0,12.2,0000.0,0001.39,0003.03,0000.89
2024-02-26 09:41:00,SystemResetWarning,0821.3,5.00,000.00,020.4,019.7,000.0,028.6,022.0,12.1,0000.0,0001.36,0002.95,0000.89
2024-02-26 09:42:00,SystemResetWarning,0821.3,5.01,000.00,020.4,019.7,000.0,028.6,022.0,12.2,0000.0,0001.34,0003.47,0000.89
2024-02-26 09:43:00,SystemResetWarning,0821.3,5.00,000.00,020.4,019.7,000.0,028.6,022.0,12.2,0000.0,0001.29,0004.46,0000.89
2024-02-26 09:44:00,SystemResetWarning,0821.5,5.01,000.00,020.4,019.7,000.0,028.6,022.0,12.2,0000.0,0001.28,0004.73,0000.89
2024-02-26 09:45:00,SystemResetWarning,0821.3,4.99,000.00,020.4,019.7,000.0,028.6,022.0,12.2,0000.0,0001.26,0004.47,0000.89
2024-02-26 09:46:00,SystemResetWarning,0821.3,5.00,000.00,020.4,019.7,000.0,028.6,022.0,12.2,0000.0,0001.25,0004.46,0000.89
2024-02-26 09:47:00,SystemResetWarning,0821.3,4.99,000.00,020.4,019.7,000.0,028.6,022.0,12.2,0000.0,0001.30,0004.73,0000.89
2024-02-26 09:48:00,SystemResetWarning,0821.3,5.00,000.00,020.4,019.6,000.0,028.6,022.0,12.2,0000.0,0001.31,0005.19,0000.89
2024-02-26 09:49:00,SystemResetWarning,0821.3,5.01,000.00,020.4,019.6,000.0,028.6,022.0,12.2,0000.0,0001.38,0005.50,0000.89
2024-02-26 09:50:00,SystemResetWarning,0821.2,5.01,000.00,020.4,019.7,000.0,028.6,022.0,12.3,0000.0,0001.41,0005.72,0000.89
2024-02-26 09:51:00,SystemResetWarning,0821.3,5.00,000.00,020.4,019.7,000.0,028.6,022.0,12.5,0000.0,0001.43,0005.89,0000.88
2024-02-26 09:52:00,SystemResetWarning,0821.2,4.99,000.00,020.4,019.6,000.0,028.6,022.0,12.4,0000.0,0001.48,0005.98,0000.88
2024-02-26 09:53:00,SystemResetWarning,0821.2,5.00,000.00,020.4,019.6,000.0,028.6,022.0,12.4,0000.0,0001.50,0005.96,0000.89
2024-02-26 09:54:00,SystemResetWarning,0821.3,4.99,000.00,020.4,019.6,000.0,028.6,022.0,12.4,0000.0,0001.55,0005.62,0000.91
2024-02-26 09:55:00,SystemResetWarning,0821.3,5.00,000.00,020.4,019.6,000.0,028.6,022.0,12.3,0000.0,0001.62,0005.27,0000.91
2024-02-26 09:56:00,SystemResetWarning,0821.3,5.00,000.00,020.4,019.6,000.0,028.6,022.0,12.3,0000.0,0001.60,0005.21,0000.91
2024-02-26 09:57:00,SystemResetWarning,0821.2,5.00,000.00,020.4,019.6,000.0,028.6,022.0,12.5,0000.0,0001.64,0005.11,0000.93
2024-02-26 09:58:00,SystemResetWarning,0821.2,5.00,000.00,020.4,019.6,000.0,028.6,022.0,12.6,0000.0,0001.58,0004.85,0000.92
2024-02-26 09:59:00,SystemResetWarning,0821.2,5.00,000.00,020.4,019.6,000.0,028.6,022.0,12.5,0000.0,0001.58,0004.38,0000.91
